Skip Page Navigation
NASA JPL Caltech
NASA Logo - Jet Propulsion Laboratory + View the NASA Portal
+ Center for Near-Earth Object Studies
JPL Home Earth Solar System Stars & Galaxies Technology
JPL Solar System Dynamics
BODIES ORBITS EPHEMERIDES TOOLS PHYSICAL DATA DISCOVERY FAQ SITE MAP
IMPORTANT: The SSD Announcement email list is now available. Major changes are coming in the near future, including possible hostname and/or URL changes. To be notified of such changes, subscribe to this email list.

Please visit this page for more details.


JPL Small-Body Database Browser
Search: [ help ]  
146029 (2000 DK65)
Classification: Main-belt Asteroid          SPK-ID: 2146029
Ephemeris | Orbit Diagram | Orbital Elements | Mission Design | Physical Parameters | Discovery Circumstances | Close-Approach Data ]

[ show orbit diagram ]
Orbital Elements at Epoch 2458600.5 (2019-Apr-27.0) TDB
Reference: JPL 15 (heliocentric ecliptic J2000)
 Element Value Uncertainty (1-sigma)   Units 
e .1456055504160146 5.6373e-08  
a 2.447060065253615 1.5315e-08 au
q 2.090754537551314 1.4268e-07 au
i 2.151412665439219 5.2044e-06 deg
node 12.87995865521565 0.00014104 deg
peri 193.7971802651752 0.00014264 deg
M 325.4260920377399 2.6227e-05 deg
tp 2458734.780002939978
(2019-Sep-08.28000294)
0.00010269 TDB
period 1398.187358836019
3.83
1.3125e-05
3.593e-08
d
yr
n .2574762228573554 2.4171e-09 deg/d
Q 2.803365592955917 1.7544e-08 au
  Orbit Determination Parameters
   # obs. used (total)      442  
   data-arc span      7440 days (20.37 yr)  
   first obs. used      1998-11-16  
   last obs. used      2019-03-31  
   planetary ephem.      DE431  
   SB-pert. ephem.      SB431-N16  
   condition code      0  
   norm. resid. RMS      .54289  
   source      ORB  
   producer      Otto Matic  
   solution date      2019-Jul-13 13:05:07  

Additional Information
 Earth MOID = 1.08666 au 
 Jupiter MOID = 2.15939 au 
 T_jup = 3.482 
[ show covariance matrix ]

Ephemeris | Orbit Diagram | Orbital Elements | Mission Design | Physical Parameters | Discovery Circumstances | Close-Approach Data ]

Physical Parameter Table
Parameter Symbol Value Units Sigma Reference Notes
absolute magnitude H 16.3   n/a MPO426921  

146029 (2000 DK65)          Discovered 2000-Feb-29 by LINEAR at Socorro
Reference: 20070106/Numbers.arcLast Updated: 2007-01-09

[ show close-approach data ]
Ephemeris | Orbit Diagram | Orbital Elements | Mission Design | Physical Parameters | Discovery Circumstances | Close-Approach Data ]
ABOUT SSD CREDITS/AWARDS PRIVACY/COPYRIGHT GLOSSARY LINKS
FirstGov 2019-Dec-11 20:43 UT
(server date/time)  
NASA Home Page
Site Manager:   Ryan S. Park
Webmaster  Alan B. Chamberlin